Tracking 34138 objects as of 15-May-2026
HD Live streaming from Space Station
objects crossing your sky now

STARLINK-36244

Track STARLINK-36244 now!
10-day predictions
STARLINK-36244 is classified as:


NORAD ID: 68145
Int'l Code: 2026-049D
Perigee: 471.9 km
Apogee: 473.5 km
Inclination: 97.3 °
Period: 93.9 minutes
Semi major axis: 6843 km
RCS: Unknown
Launch date: March 13, 2026
Source: United States (US)
Launch site: AIR FORCE WESTERN TEST RANGE (AFWTR)
Your satellite tracking list
Your tracking list is empty




NASA's NSSDC Master Catalog

Two Line Element Set (TLE):
1 68145U 26049D   26135.02663991  .00013587  00000-0  42233-3 0  9999
2 68145  97.2836 156.8248 0001186  97.6684 262.4694 15.33451571  9817
Source of the keplerian elements: AFSPC